Regional Weather Roundup
Issued by NWS Cleveland, OH

Home | Current Version | Previous Version | Graphics & Text | Print | Product List | Glossary On
Versions: 1 2 3 4 5 6 7 8 9 10 11 12 13 14 15 16 17 18 19 20 21 22 23 24 25 26 27 28 29 30 31 32 33 34 35 36 37 38 39 40 41 42 43 44 45 46 47 48 49 50
000
ASUS41 KCLE 261010
RWRCLE
OHIO REGIONAL WEATHER ROUNDUP
NATIONAL WEATHER SERVICE WILMINGTON, OH
600 AM EDT THU APR 26 2018

NOTE: "FAIR" INDICATES FEW OR NO CLOUDS BELOW 12,000 FEET WITH NO
SIGNIFICANT WEATHER AND/OR OBSTRUCTIONS TO VISIBILITY.

OHZ001>008-015>018-024>027-034-035-043-044-261100-
   NORTHWEST OHIO

CITY           SKY/WX    TMP DP  RH WIND       PRES   REMARKS
DEFIANCE       CLOUDY    42  38  85 SE3       29.93F
FINDLAY        FAIR      40  35  83 CALM      29.92S
TOLEDO EXPRESS FOG       36  36 100 CALM      29.93S VSB 3/4
TOLEDO EXEC    FAIR      36  33  89 S3        29.94S
LIMA           CLOUDY    41  39  93 E7        29.91S
$$

OHZ009>014-019>023-028>033-038-089-261100-
   NORTHEAST OHIO

CITY           SKY/WX    TMP DP  RH WIND       PRES   REMARKS
CLE-HOPKINS    FAIR      35  33  92 S3        29.95F
CLE-LAKEFRONT  FAIR      37  33  85 SW5       29.93S
CUY CO. ARPT   NOT AVBL
LORAIN-ELYRIA  FAIR      31  27  85 CALM      29.93F
ASHTABULA      CLOUDY    33  33 100 W5        29.91R WCI  29
AKRON-CANTON   FAIR      35  32  88 NE3       29.93R
WOOSTER        FAIR      34  33  96 N6        29.93S WCI  29
MANSFIELD      FAIR      36  34  92 SE3       29.92S FOG
YOUNGSTOWN     MOCLDY    36  33  89 W5        29.90S
$$

OHZ042-051>053-060>062-070>072-077>081-261100-
  SOUTHWEST OHIO

CITY           SKY/WX    TMP DP  RH WIND       PRES   REMARKS
CINC-COVINGTON MOCLDY    45  34  65 N6        29.89S
CINC-LUNKEN    FAIR      45  37  73 CALM      29.91S
HAMILTON       FAIR      38  35  89 CALM      29.91S
DAYTON         FAIR      41  35  79 N6        29.90F
WRIGHT-PAT AFB CLOUDY    42  35  76 CALM      29.90S
DAYTON GENERAL FAIR      43  32  65 N6        29.88F
WILMINGTON     FAIR      44  36  73 N5        29.88S
$$

OHZ036-037-039>041-045>050-054>059-063>069-073>076-082>088-261100-
  CENTRAL AND SOUTHEAST OHIO

CITY           SKY/WX    TMP DP  RH WIND       PRES   REMARKS
COLUMBUS       MOCLDY    42  38  85 E6        29.91S
OSU AIRPORT    FAIR      41  38  89 NE9       29.91S
BOLTON FIELD   FAIR      42  40  95 NE5       29.91S
RICKENBACK AFB FAIR      41  41 100 NE7       29.91R
NEWARK         MOCLDY    41  38  89 VRB3      29.92S
MARION         FAIR      35  33  92 E3        29.92F FOG
LANCASTER      FAIR      43  42  97 E6        29.91S
ZANESVILLE     FAIR      42  38  85 NE6       29.92F
NEW PHILLY     FAIR      34  32  92 CALM      29.94R FOG
$$



USA.gov is the U.S. government's official web portal to all federal, state and local government web resources and services.